Hourly Weather Bolshoe Permievo

Today, 23 July, Friday

Time Temperature Precipitation Wind Pressure Humidity
00:00 +14°C° 0 mm 2 mps 735 mmHg 90%
01:00 +14°C° 0 mm 2 mps 735 mmHg 88%
02:00 +14°C° 0 mm 2 mps 735 mmHg 86%
03:00 +14°C° 0 mm 2 mps 735 mmHg 84%
04:00 +14°C° 0 mm 2 mps 735 mmHg 82%
05:00 +15°C° 0 mm 2 mps 735 mmHg 80%
06:00 +15°C° 0 mm 2 mps 735 mmHg 77%
07:00 +16°C° 0 mm 2 mps 735 mmHg 68%
08:00 +18°C° 0 mm 3 mps 735 mmHg 58%
09:00 +20°C° 0 mm 3 mps 736 mmHg 45%
10:00 +20°C° 0 mm 3 mps 736 mmHg 44%
11:00 +21°C° 0 mm 4 mps 736 mmHg 43%
12:00 +22°C° 0 mm 4 mps 736 mmHg 42%
13:00 +22°C° 0 mm 4 mps 735 mmHg 42%
14:00 +23°C° 0 mm 4 mps 735 mmHg 42%
15:00 +24°C° 0 mm 3 mps 735 mmHg 42%
16:00 +22°C° 0 mm 3 mps 735 mmHg 46%
17:00 +22°C° 0 mm 3 mps 735 mmHg 50%
18:00 +21°C° 0 mm 2 mps 735 mmHg 55%
19:00 +20°C° 0 mm 2 mps 735 mmHg 58%
20:00 +18°C° 0 mm 2 mps 735 mmHg 62%
21:00 +16°C° 0 mm 2 mps 735 mmHg 65%
22:00 +17°C° 0 mm 2 mps 735 mmHg 64%
23:00 +17°C° 0 mm 2 mps 735 mmHg 63%

Tomorrow, 24 July, Saturday

Time Temperature Precipitation Wind Pressure Humidity
00:00 +17°C° 0 mm 2 mps 735 mmHg 62%
01:00 +16°C° 0 mm 2 mps 735 mmHg 67%
02:00 +15°C° 0 mm 2 mps 736 mmHg 71%
03:00 +14°C° 0 mm 2 mps 736 mmHg 76%
04:00 +15°C° 0 mm 2 mps 736 mmHg 76%
05:00 +15°C° 0 mm 2 mps 736 mmHg 77%
06:00 +16°C° 0 mm 2 mps 736 mmHg 77%
07:00 +17°C° 0 mm 2 mps 737 mmHg 71%
08:00 +19°C° 0 mm 3 mps 737 mmHg 65%
09:00 +20°C° 0 mm 3 mps 737 mmHg 59%
10:00 +21°C° 0.2 mm 3 mps 737 mmHg 56%
11:00 +22°C° 0.2 mm 4 mps 738 mmHg 53%
12:00 +22°C° 0.2 mm 4 mps 738 mmHg 50%
13:00 +22°C° 0.1 mm 4 mps 738 mmHg 50%
14:00 +22°C° 0.1 mm 4 mps 739 mmHg 50%
15:00 +22°C° 0.1 mm 4 mps 739 mmHg 50%
16:00 +21°C° 0 mm 4 mps 739 mmHg 52%
17:00 +20°C° 0 mm 4 mps 740 mmHg 54%
18:00 +19°C° 0 mm 4 mps 740 mmHg 56%
19:00 +18°C° 0 mm 3 mps 741 mmHg 62%
20:00 +16°C° 0 mm 2 mps 741 mmHg 69%
21:00 +15°C° 0 mm 1 mps 742 mmHg 75%
22:00 +14°C° 0 mm 1 mps 742 mmHg 77%
23:00 +13°C° 0 mm 1 mps 742 mmHg 79%

Day after tomorrow, 25 July, Sunday

Time Temperature Precipitation Wind Pressure Humidity
00:00 +13°C° 0 mm 1 mps 743 mmHg 81%
01:00 +13°C° 0 mm 1 mps 743 mmHg 81%
02:00 +13°C° 0 mm 1 mps 743 mmHg 81%
03:00 +13°C° 0 mm 1 mps 744 mmHg 80%
04:00 +14°C° 0 mm 1 mps 744 mmHg 79%
05:00 +14°C° 0 mm 1 mps 745 mmHg 77%
06:00 +15°C° 0 mm 1 mps 745 mmHg 75%
07:00 +16°C° 0 mm 1 mps 745 mmHg 70%
08:00 +19°C° 0 mm 1 mps 745 mmHg 64%
09:00 +19°C° 0 mm 2 mps 746 mmHg 58%
10:00 +20°C° 0.1 mm 2 mps 746 mmHg 54%
11:00 +20°C° 0.1 mm 2 mps 746 mmHg 51%
12:00 +21°C° 0.1 mm 3 mps 746 mmHg 47%
13:00 +21°C° 0 mm 2 mps 746 mmHg 49%
14:00 +20°C° 0 mm 2 mps 747 mmHg 50%
15:00 +20°C° 0 mm 2 mps 747 mmHg 52%
16:00 +21°C° 0 mm 1 mps 747 mmHg 55%
17:00 +20°C° 0 mm 1 mps 747 mmHg 58%
18:00 +20°C° 0 mm 1 mps 747 mmHg 60%
19:00 +19°C° 0 mm 1 mps 747 mmHg 60%
20:00 +18°C° 0 mm 1 mps 747 mmHg 61%
21:00 +16°C° 0 mm 1 mps 748 mmHg 61%
22:00 +16°C° 0 mm 1 mps 748 mmHg 60%
23:00 +15°C° 0 mm 1 mps 748 mmHg 59%

26 July, Monday

Time Temperature Precipitation Wind Pressure Humidity
00:00 +15°C° 0 mm 1 mps 748 mmHg 58%
01:00 +15°C° 0 mm 1 mps 748 mmHg 59%
02:00 +14°C° 0 mm 0 mps 748 mmHg 60%
03:00 +13°C° 0 mm 0 mps 748 mmHg 62%
04:00 +14°C° 0 mm 0 mps 749 mmHg 63%
05:00 +14°C° 0 mm 0 mps 749 mmHg 63%
06:00 +15°C° 0 mm 0 mps 749 mmHg 64%
07:00 +16°C° 0 mm 0 mps 749 mmHg 59%
08:00 +18°C° 0 mm 0 mps 749 mmHg 54%
09:00 +19°C° 0 mm 0 mps 749 mmHg 49%
10:00 +20°C° 0 mm 0 mps 749 mmHg 45%
11:00 +23°C° 0 mm 1 mps 749 mmHg 40%
12:00 +25°C° 0 mm 1 mps 749 mmHg 35%
13:00 +24°C° 0 mm 1 mps 749 mmHg 35%
14:00 +24°C° 0 mm 1 mps 749 mmHg 36%
15:00 +24°C° 0 mm 1 mps 749 mmHg 37%
16:00 +24°C° 0 mm 1 mps 748 mmHg 41%
17:00 +23°C° 0 mm 1 mps 748 mmHg 46%
18:00 +23°C° 0 mm 1 mps 748 mmHg 50%
19:00 +21°C° 0 mm 1 mps 748 mmHg 52%
20:00 +19°C° 0 mm 1 mps 748 mmHg 53%
21:00 +16°C° 0 mm 1 mps 748 mmHg 55%
22:00 +16°C° 0 mm 1 mps 748 mmHg 55%
23:00 +15°C° 0 mm 1 mps 748 mmHg 55%

27 July, Tuesday

Time Temperature Precipitation Wind Pressure Humidity
00:00 +15°C° 0 mm 1 mps 748 mmHg 55%
01:00 +15°C° 0 mm 1 mps 748 mmHg 55%
02:00 +15°C° 0 mm 2 mps 748 mmHg 55%
03:00 +15°C° 0 mm 2 mps 748 mmHg 54%
04:00 +16°C° 0 mm 2 mps 748 mmHg 57%
05:00 +16°C° 0 mm 2 mps 748 mmHg 59%
06:00 +17°C° 0 mm 2 mps 748 mmHg 61%
07:00 +19°C° 0 mm 2 mps 748 mmHg 57%
08:00 +20°C° 0 mm 2 mps 748 mmHg 52%
09:00 +23°C° 0 mm 2 mps 748 mmHg 48%
10:00 +25°C° 0 mm 2 mps 748 mmHg 44%
11:00 +26°C° 0 mm 3 mps 748 mmHg 41%
12:00 +27°C° 0 mm 3 mps 747 mmHg 37%
13:00 +27°C° 0 mm 2 mps 747 mmHg 39%
14:00 +26°C° 0 mm 2 mps 747 mmHg 41%
15:00 +26°C° 0 mm 2 mps 747 mmHg 43%
16:00 +26°C° 0 mm 2 mps 746 mmHg 47%
17:00 +25°C° 0 mm 2 mps 746 mmHg 51%
18:00 +25°C° 0 mm 2 mps 746 mmHg 55%
19:00 +23°C° 0 mm 2 mps 746 mmHg 59%
20:00 +20°C° 0 mm 2 mps 746 mmHg 63%
21:00 +18°C° 0 mm 2 mps 746 mmHg 67%
22:00 +18°C° 0 mm 2 mps 746 mmHg 68%
23:00 +18°C° 0 mm 1 mps 746 mmHg 69%

28 July, Wednesday

Time Temperature Precipitation Wind Pressure Humidity
00:00 +18°C° 0 mm 1 mps 746 mmHg 70%
01:00 +18°C° 0 mm 1 mps 746 mmHg 72%
02:00 +16°C° 0 mm 1 mps 746 mmHg 74%
03:00 +16°C° 0 mm 2 mps 746 mmHg 76%
04:00 +16°C° 0 mm 1 mps 746 mmHg 74%
05:00 +18°C° 0 mm 1 mps 746 mmHg 73%
06:00 +19°C° 0 mm 1 mps 746 mmHg 72%
07:00 +21°C° 0 mm 1 mps 746 mmHg 65%
08:00 +23°C° 0 mm 1 mps 746 mmHg 59%
09:00 +25°C° 0 mm 1 mps 746 mmHg 53%
10:00 +26°C° 0 mm 1 mps 746 mmHg 49%
11:00 +27°C° 0 mm 1 mps 746 mmHg 46%
12:00 +28°C° 0 mm 1 mps 745 mmHg 42%
13:00 +27°C° 0 mm 2 mps 745 mmHg 42%
14:00 +27°C° 0 mm 2 mps 745 mmHg 42%
15:00 +27°C° 0 mm 2 mps 745 mmHg 42%
16:00 +27°C° 0 mm 1 mps 745 mmHg 46%
17:00 +27°C° 0 mm 1 mps 745 mmHg 50%
18:00 +24°C° 0 mm 0 mps 745 mmHg 54%
19:00 +24°C° 0 mm 1 mps 744 mmHg 57%
20:00 +22°C° 0 mm 1 mps 744 mmHg 60%
21:00 +20°C° 0 mm 1 mps 744 mmHg 63%
22:00 +19°C° 0 mm 1 mps 744 mmHg 65%
23:00 +19°C° 0 mm 1 mps 744 mmHg 66%
Show more

We Need Your Consent

Meteoprog and our Service Providers may store and access personal data such as cookies, device identifiers or other similar technologies on your device and process such data to personalise content and ads, as well as provide social media features and to analyse the traffic.

  • Store and/or access information on your device

    Cookies, device identifiers or other information can be stored or accessed on your device for the purposes indicated above.

  • Personalised ads and content, ad and content measurement, audience insights, and products development

    Ads and content can be personalised based on a profile. More data can be added to better personalise ads and content. Ad and content performance can be measured. Insights about the audience who saw the ads and content can be derived. Such data can be used to develop or improve user’s experience, systems and software.

By clicking ‘I Agree’ you will allow the use of indicated cookies, device identifiers, web beacons or other similar technologies. Your settings can be changed in the browser on your device.

For certain purposes, legitimate interests may be relied on, rather than consent. You can read more about this in our Privacy and Cookie Policy.